HAZ2812 ZBAD-ZSHC

Flight info

Callsign HAZ2812
Flight time 1h 31m
Altitude 35100
Route ELKUR W40 YQG W142 DALIM A593 DPX A470 IGRAT
Aircraft A359/H-SDE3FGHIRWY/LB1D1

Departure

Time 2026-04-15 13:38
Airport Beijing Daxing International Airport (ZBAD)

Arrival

Time 2026-04-15 15:09
Airport Hangzhou Xiaoshan International Airport (ZSHC)
Time Latitude Longitude Altitude Speed Heading
2026-04-15 13:18 39.51224 116.41760 114 ft 0 kts 325°
2026-04-15 13:26 39.51223 116.41761 114 ft 2 kts 325°
2026-04-15 13:27 39.51202 116.41780 117 ft 4 kts 327°
2026-04-15 13:27 39.51179 116.41795 110 ft 4 kts 342°
2026-04-15 13:27 39.51155 116.41802 114 ft 4 kts 22°
2026-04-15 13:27 39.51151 116.41801 110 ft 1 kts 78°
2026-04-15 13:28 39.51144 116.41759 112 ft 4 kts 78°
2026-04-15 13:28 39.51141 116.41739 114 ft 2 kts 78°
2026-04-15 13:28 39.51141 116.41738 114 ft 0 kts 78°
2026-04-15 13:31 39.51141 116.41740 114 ft 1 kts 78°
2026-04-15 13:31 39.51150 116.41807 111 ft 14 kts 82°
2026-04-15 13:31 39.51169 116.41985 114 ft 23 kts 83°
2026-04-15 13:31 39.51192 116.42133 114 ft 10 kts 58°
2026-04-15 13:32 39.51265 116.42155 111 ft 14 kts 358°
2026-04-15 13:32 39.51376 116.42139 110 ft 12 kts
2026-04-15 13:32 39.51419 116.42247 111 ft 20 kts 81°
2026-04-15 13:32 39.51441 116.42471 111 ft 29 kts 84°
2026-04-15 13:33 39.51463 116.42701 113 ft 26 kts 83°
2026-04-15 13:33 39.51485 116.42939 111 ft 24 kts 83°
2026-04-15 13:33 39.51502 116.43073 113 ft 8 kts 69°
2026-04-15 13:33 39.51551 116.43111 114 ft 8 kts 12°
2026-04-15 13:34 39.51560 116.43113 112 ft 0 kts 12°
2026-04-15 13:35 39.51563 116.43114 114 ft 3 kts 13°
2026-04-15 13:35 39.51605 116.43140 111 ft 11 kts 33°
2026-04-15 13:36 39.51648 116.43246 116 ft 9 kts 90°
2026-04-15 13:36 39.51642 116.43294 116 ft 0 kts 101°
2026-04-15 13:37 39.51636 116.43325 113 ft 17 kts 102°
2026-04-15 13:37 39.51560 116.43751 115 ft 85 kts 103°
2026-04-15 13:37 39.51369 116.44814 112 ft 151 kts 103°
2026-04-15 13:37 39.51101 116.46282 545 ft 172 kts 105°
2026-04-15 13:38 39.50826 116.47771 1463 ft 165 kts 105°
2026-04-15 13:38 39.50566 116.49239 2192 ft 175 kts 105°
2026-04-15 13:38 39.50288 116.50819 2770 ft 183 kts 107°
2026-04-15 13:38 39.50000 116.52431 3451 ft 187 kts 108°
2026-04-15 13:39 39.49684 116.54161 3783 ft 211 kts 108°
2026-04-15 13:39 39.49319 116.56147 4036 ft 241 kts 107°
2026-04-15 13:39 39.48924 116.58345 4533 ft 260 kts 107°
2026-04-15 13:39 39.48506 116.60685 4851 ft 273 kts 107°
2026-04-15 13:40 39.48073 116.63113 5144 ft 277 kts 107°
2026-04-15 13:40 39.47654 116.65548 5828 ft 278 kts 105°
2026-04-15 13:40 39.47308 116.67942 6674 ft 282 kts 104°
2026-04-15 13:40 39.46943 116.70510 7644 ft 286 kts 104°
2026-04-15 13:41 39.46570 116.73090 8602 ft 290 kts 104°
2026-04-15 13:41 39.46118 116.75603 9479 ft 292 kts 114°
2026-04-15 13:41 39.45026 116.77751 10343 ft 287 kts 142°
2026-04-15 13:41 39.43279 116.79082 10854 ft 302 kts 160°
2026-04-15 13:42 39.41238 116.80082 11234 ft 324 kts 161°
2026-04-15 13:42 39.39070 116.81133 11669 ft 342 kts 160°
2026-04-15 13:42 39.36831 116.82246 12344 ft 351 kts 160°
2026-04-15 13:42 39.34520 116.83409 13117 ft 358 kts 160°
2026-04-15 13:43 39.32176 116.84594 13844 ft 365 kts 160°
2026-04-15 13:43 39.29791 116.85799 14540 ft 372 kts 160°
2026-04-15 13:43 39.27373 116.87018 15242 ft 378 kts 160°
2026-04-15 13:43 39.24871 116.88279 15979 ft 384 kts 160°
2026-04-15 13:44 39.22362 116.89544 16650 ft 390 kts 160°
2026-04-15 13:44 39.19807 116.90831 17280 ft 397 kts 160°
2026-04-15 13:44 39.17210 116.92140 17953 ft 403 kts 161°
2026-04-15 13:44 39.14591 116.93457 18606 ft 408 kts 161°
2026-04-15 13:45 39.11930 116.94799 19294 ft 413 kts 161°
2026-04-15 13:45 39.09240 116.96159 19986 ft 418 kts 161°
2026-04-15 13:45 39.06522 116.97524 20645 ft 423 kts 161°
2026-04-15 13:47 38.86403 117.06378 24910 ft 444 kts 186°
2026-04-15 13:47 38.83382 117.05786 25513 ft 437 kts 201°
2026-04-15 13:47 38.80626 117.04215 26141 ft 429 kts 216°
2026-04-15 13:48 38.78357 117.01882 26737 ft 423 kts 231°
2026-04-15 13:48 38.76616 116.98890 27360 ft 416 kts 244°
2026-04-15 13:48 38.75512 116.95492 27978 ft 413 kts 256°
2026-04-15 13:48 38.74572 116.92013 28566 ft 416 kts 250°
2026-04-15 13:49 38.73294 116.88670 29154 ft 419 kts 246°
2026-04-15 13:49 38.71919 116.85372 29710 ft 420 kts 245°
2026-04-15 13:49 38.70532 116.82071 30234 ft 421 kts 245°
2026-04-15 13:49 38.69133 116.78775 30760 ft 423 kts 244°
2026-04-15 13:50 38.67540 116.75588 31189 ft 428 kts 238°
2026-04-15 13:50 38.65590 116.72677 31611 ft 435 kts 230°
2026-04-15 13:50 38.63270 116.70122 31983 ft 444 kts 222°
2026-04-15 13:50 38.60632 116.68023 32373 ft 453 kts 214°
2026-04-15 13:51 38.57697 116.66428 32709 ft 463 kts 205°
2026-04-15 13:51 38.54539 116.65430 33096 ft 473 kts 196°
2026-04-15 13:51 38.51267 116.64873 33561 ft 475 kts 193°
2026-04-15 13:51 38.47976 116.64477 34078 ft 474 kts 192°
2026-04-15 13:52 38.44692 116.64147 34526 ft 473 kts 192°
2026-04-15 13:52 38.41418 116.63829 34900 ft 472 kts 192°
2026-04-15 13:52 38.38138 116.63497 35056 ft 474 kts 192°
2026-04-15 13:52 38.34858 116.63149 35086 ft 472 kts 193°
2026-04-15 13:53 38.28224 116.63177 35074 ft 486 kts 180°
2026-04-15 13:53 38.21563 116.65194 35078 ft 496 kts 172°
2026-04-15 13:54 38.14929 116.67684 35081 ft 497 kts 171°
2026-04-15 13:54 38.08294 116.70222 35079 ft 498 kts 171°
2026-04-15 13:55 38.01671 116.72773 35084 ft 498 kts 171°
2026-04-15 13:55 37.95042 116.75314 35094 ft 497 kts 171°
2026-04-15 13:56 37.88447 116.77822 35097 ft 495 kts 171°
2026-04-15 13:56 37.81855 116.80319 35081 ft 494 kts 171°
2026-04-15 13:57 37.75261 116.82812 35086 ft 494 kts 171°
2026-04-15 13:57 37.68672 116.85299 35098 ft 494 kts 171°
2026-04-15 13:58 37.62077 116.87786 35094 ft 495 kts 171°
2026-04-15 13:58 37.55483 116.90266 35082 ft 494 kts 171°
2026-04-15 13:59 37.48915 116.92740 35081 ft 485 kts 171°
2026-04-15 13:59 37.45729 116.93949 35099 ft 474 kts 172°
2026-04-15 13:59 37.42593 116.95131 35096 ft 469 kts 172°
2026-04-15 14:00 37.36373 116.97449 35096 ft 469 kts 172°
2026-04-15 14:00 37.30075 116.99787 35098 ft 470 kts 172°
2026-04-15 14:01 37.20738 117.03922 35100 ft 476 kts 167°
2026-04-15 14:02 37.14617 117.06936 35098 ft 476 kts 167°
2026-04-15 14:02 37.08383 117.09905 35099 ft 475 kts 168°
2026-04-15 14:03 37.02230 117.12776 35099 ft 475 kts 168°
2026-04-15 14:03 36.96056 117.15641 35099 ft 475 kts 168°
2026-04-15 14:04 36.89969 117.18464 35098 ft 475 kts 168°
2026-04-15 14:04 36.83722 117.21004 35100 ft 464 kts 178°
2026-04-15 14:04 36.80558 117.21501 35102 ft 453 kts 186°
2026-04-15 14:05 36.77434 117.21612 35098 ft 450 kts 188°
2026-04-15 14:05 36.71177 117.21586 35099 ft 448 kts 189°
2026-04-15 14:06 36.64949 117.21494 35098 ft 448 kts 189°
2026-04-15 14:06 36.58700 117.21426 35099 ft 449 kts 189°
2026-04-15 14:07 36.52459 117.21379 35103 ft 449 kts 189°
2026-04-15 14:07 36.46221 117.21337 35100 ft 449 kts 189°
2026-04-15 14:08 36.39911 117.22085 35100 ft 465 kts 175°
2026-04-15 14:08 36.33822 117.24162 35099 ft 469 kts 172°
2026-04-15 14:09 36.27581 117.26526 35109 ft 469 kts 172°
2026-04-15 14:09 36.21330 117.28892 35109 ft 469 kts 172°
2026-04-15 14:10 36.15078 117.31230 35110 ft 469 kts 172°
2026-04-15 14:10 36.08837 117.33538 35109 ft 469 kts 172°
2026-04-15 14:11 36.02587 117.35844 35109 ft 469 kts 172°
2026-04-15 14:11 35.96375 117.38155 35116 ft 469 kts 172°
2026-04-15 14:12 35.90143 117.40492 35118 ft 468 kts 172°
2026-04-15 14:12 35.83912 117.42819 35118 ft 468 kts 172°
2026-04-15 14:13 35.77674 117.45147 35114 ft 468 kts 172°
2026-04-15 14:13 35.72483 117.47084 35117 ft 468 kts 172°
2026-04-15 14:14 35.65234 117.49779 35117 ft 468 kts 172°
2026-04-15 14:14 35.58995 117.52096 35118 ft 468 kts 172°
2026-04-15 14:15 35.52762 117.54410 35116 ft 468 kts 172°
2026-04-15 14:15 35.46516 117.56722 35116 ft 468 kts 172°
2026-04-15 14:16 35.41299 117.58650 35117 ft 468 kts 172°
2026-04-15 14:16 35.35093 117.60942 35116 ft 468 kts 172°
2026-04-15 14:17 35.28854 117.63242 35118 ft 469 kts 172°
2026-04-15 14:17 35.22602 117.65543 35117 ft 469 kts 172°
2026-04-15 14:18 35.16352 117.67839 35119 ft 469 kts 172°
2026-04-15 14:18 35.10110 117.70129 35116 ft 469 kts 172°
2026-04-15 14:19 35.03860 117.72427 35117 ft 469 kts 172°
2026-04-15 14:19 34.97599 117.74722 35115 ft 469 kts 172°
2026-04-15 14:20 34.91349 117.76999 35115 ft 469 kts 172°
2026-04-15 14:20 34.85095 117.79281 35117 ft 470 kts 172°
2026-04-15 14:21 34.78841 117.81586 35116 ft 470 kts 172°
2026-04-15 14:21 34.72672 117.83806 35117 ft 469 kts 172°
2026-04-15 14:22 34.66399 117.86045 35110 ft 469 kts 172°
2026-04-15 14:22 34.60145 117.88283 35108 ft 469 kts 172°
2026-04-15 14:23 34.53877 117.90527 35108 ft 470 kts 172°
2026-04-15 14:23 34.47604 117.92775 35108 ft 469 kts 172°
2026-04-15 14:24 34.41345 117.95013 35108 ft 469 kts 172°
2026-04-15 14:24 34.35086 117.97247 35108 ft 469 kts 172°
2026-04-15 14:25 34.28827 117.99477 35108 ft 469 kts 172°
2026-04-15 14:25 34.22581 118.01726 35109 ft 469 kts 171°
2026-04-15 14:26 34.16329 118.04012 35109 ft 470 kts 171°
2026-04-15 14:26 34.10064 118.06298 35109 ft 470 kts 171°
2026-04-15 14:27 34.03847 118.08558 35108 ft 470 kts 171°
2026-04-15 14:27 33.97597 118.10834 35110 ft 470 kts 171°
2026-04-15 14:28 33.91336 118.13113 35108 ft 470 kts 171°
2026-04-15 14:28 33.85080 118.15385 35108 ft 470 kts 171°
2026-04-15 14:29 33.78827 118.17663 35108 ft 470 kts 171°
2026-04-15 14:29 33.72576 118.19941 35103 ft 470 kts 171°
2026-04-15 14:30 33.66318 118.22214 35098 ft 470 kts 171°
2026-04-15 14:30 33.60062 118.24485 35099 ft 470 kts 171°
2026-04-15 14:31 33.53806 118.26754 35098 ft 470 kts 172°
2026-04-15 14:31 33.47581 118.29008 35099 ft 470 kts 172°
2026-04-15 14:32 33.41335 118.31267 35099 ft 470 kts 172°
2026-04-15 14:32 33.35070 118.33530 35097 ft 470 kts 172°
2026-04-15 14:33 33.28799 118.35790 35099 ft 470 kts 172°
2026-04-15 14:33 33.22540 118.38044 35099 ft 470 kts 172°
2026-04-15 14:34 33.16289 118.40292 35098 ft 470 kts 172°
2026-04-15 14:34 33.10024 118.42549 35099 ft 470 kts 172°
2026-04-15 14:35 33.03749 118.44806 35099 ft 472 kts 172°
2026-04-15 14:35 32.97428 118.47069 35096 ft 476 kts 172°
2026-04-15 14:36 32.91086 118.49343 35097 ft 477 kts 172°
2026-04-15 14:36 32.84730 118.51621 35098 ft 476 kts 172°
2026-04-15 14:37 32.78374 118.53896 35100 ft 476 kts 172°
2026-04-15 14:37 32.72040 118.56155 35100 ft 476 kts 172°
2026-04-15 14:38 32.65676 118.58431 35099 ft 478 kts 171°
2026-04-15 14:38 32.59403 118.61192 35099 ft 483 kts 167°
2026-04-15 14:39 32.53171 118.64193 35098 ft 483 kts 167°
2026-04-15 14:39 32.46914 118.67125 35096 ft 483 kts 168°
2026-04-15 14:40 32.40662 118.69980 35099 ft 482 kts 168°
2026-04-15 14:40 32.34371 118.72828 35098 ft 482 kts 168°
2026-04-15 14:41 32.28115 118.75658 35098 ft 482 kts 168°
2026-04-15 14:41 32.21850 118.78489 35096 ft 482 kts 168°
2026-04-15 14:42 32.15587 118.81318 35096 ft 481 kts 168°
2026-04-15 14:42 32.09334 118.84136 35085 ft 481 kts 168°
2026-04-15 14:43 32.03084 118.86953 35083 ft 481 kts 175°
2026-04-15 14:43 31.96918 118.89739 35096 ft 474 kts 177°
2026-04-15 14:44 31.90766 118.92496 35079 ft 474 kts 177°
2026-04-15 14:44 31.87688 118.93869 34917 ft 474 kts 177°
2026-04-15 14:44 31.84589 118.95252 34673 ft 475 kts 177°
2026-04-15 14:44 31.81492 118.96629 34420 ft 477 kts 170°
2026-04-15 14:45 31.78363 118.98026 34176 ft 483 kts 168°
2026-04-15 14:45 31.75231 118.99430 33924 ft 485 kts 168°
2026-04-15 14:45 31.72059 119.00857 33685 ft 486 kts 167°
2026-04-15 14:45 31.68899 119.02276 33428 ft 487 kts 167°
2026-04-15 14:46 31.65735 119.03663 33188 ft 485 kts 170°
2026-04-15 14:46 31.62510 119.04789 32930 ft 482 kts 173°
2026-04-15 14:46 31.59280 119.05919 32676 ft 487 kts 169°
2026-04-15 14:46 31.56128 119.07495 32427 ft 498 kts 160°
2026-04-15 14:47 31.53152 119.09606 31884 ft 508 kts 154°
2026-04-15 14:47 31.50229 119.12008 30929 ft 514 kts 151°
2026-04-15 14:47 31.47344 119.14519 29941 ft 518 kts 150°
2026-04-15 14:47 31.44483 119.17073 29178 ft 517 kts 149°
2026-04-15 14:48 31.41631 119.19628 28502 ft 512 kts 149°
2026-04-15 14:48 31.38819 119.22132 27859 ft 508 kts 149°
2026-04-15 14:48 31.36011 119.24612 27211 ft 503 kts 149°
2026-04-15 14:48 31.33222 119.27058 26568 ft 498 kts 150°
2026-04-15 14:49 31.30465 119.29463 25932 ft 494 kts 149°
2026-04-15 14:49 31.27721 119.31849 25293 ft 489 kts 149°
2026-04-15 14:49 31.24998 119.34213 24660 ft 485 kts 149°
2026-04-15 14:49 31.22310 119.36548 24028 ft 480 kts 149°
2026-04-15 14:50 31.19641 119.38864 23418 ft 475 kts 149°
2026-04-15 14:50 31.16995 119.41172 22796 ft 471 kts 149°
2026-04-15 14:50 31.14389 119.43451 22178 ft 467 kts 148°
2026-04-15 14:50 31.11801 119.45713 21567 ft 462 kts 148°
2026-04-15 14:51 31.09244 119.47945 20959 ft 458 kts 148°
2026-04-15 14:51 31.06700 119.50165 20343 ft 453 kts 148°
2026-04-15 14:51 31.04216 119.52331 19734 ft 449 kts 148°
2026-04-15 14:51 31.01729 119.54498 19127 ft 444 kts 148°
2026-04-15 14:52 30.99267 119.56644 18512 ft 439 kts 147°
2026-04-15 14:52 30.96838 119.58760 17898 ft 434 kts 147°
2026-04-15 14:52 30.94432 119.60851 17287 ft 429 kts 147°
2026-04-15 14:52 30.92023 119.62943 16677 ft 424 kts 147°
2026-04-15 14:53 30.89706 119.64957 16068 ft 420 kts 147°
2026-04-15 14:53 30.87376 119.66978 15446 ft 416 kts 147°
2026-04-15 14:53 30.85060 119.68985 14826 ft 412 kts 146°
2026-04-15 14:53 30.82767 119.70971 14216 ft 409 kts 146°
2026-04-15 14:54 30.80495 119.72938 13625 ft 403 kts 146°
2026-04-15 14:54 30.78261 119.74873 13007 ft 398 kts 146°
2026-04-15 14:54 30.76076 119.76765 12656 ft 386 kts 145°
2026-04-15 14:54 30.73956 119.78600 12323 ft 374 kts 145°
2026-04-15 14:55 30.71927 119.80359 11682 ft 360 kts 145°
2026-04-15 14:55 30.69960 119.82090 11523 ft 348 kts 143°
2026-04-15 14:55 30.68059 119.83832 11406 ft 349 kts 143°
2026-04-15 14:55 30.66150 119.85585 11260 ft 350 kts 143°
2026-04-15 14:56 30.64218 119.87303 11092 ft 349 kts 147°
2026-04-15 14:56 30.62173 119.88720 10962 ft 334 kts 153°
2026-04-15 14:56 30.60175 119.89976 10798 ft 321 kts 154°
2026-04-15 14:56 30.58239 119.91186 10498 ft 313 kts 153°
2026-04-15 14:57 30.56342 119.92382 10176 ft 307 kts 153°
2026-04-15 14:57 30.54480 119.93577 9774 ft 303 kts 152°
2026-04-15 14:57 30.52650 119.94741 9424 ft 298 kts 152°
2026-04-15 14:57 30.50843 119.95884 9115 ft 295 kts 152°
2026-04-15 14:58 30.49048 119.97019 8793 ft 293 kts 152°
2026-04-15 14:58 30.47254 119.98155 8462 ft 292 kts 152°
2026-04-15 14:58 30.45486 119.99283 8217 ft 290 kts 151°
2026-04-15 14:58 30.43740 120.00460 7947 ft 289 kts 150°
2026-04-15 14:59 30.42024 120.01627 7671 ft 283 kts 150°
2026-04-15 14:59 30.40908 120.02383 7490 ft 278 kts 150°
2026-04-15 14:59 30.38704 120.03871 7131 ft 268 kts 150°
2026-04-15 14:59 30.37111 120.04944 6883 ft 262 kts 150°
2026-04-15 15:00 30.35563 120.05985 6614 ft 259 kts 150°
2026-04-15 15:00 30.34019 120.07023 6342 ft 254 kts 150°
2026-04-15 15:00 30.32511 120.08037 6073 ft 249 kts 149°
2026-04-15 15:00 30.31500 120.08716 5897 ft 246 kts 149°
2026-04-15 15:01 30.29555 120.10020 5541 ft 240 kts 149°
2026-04-15 15:01 30.28146 120.10966 5276 ft 236 kts 149°
2026-04-15 15:01 30.26737 120.11914 5003 ft 233 kts 149°
2026-04-15 15:01 30.25344 120.12848 4729 ft 229 kts 149°
2026-04-15 15:02 30.24433 120.13457 4560 ft 227 kts 148°
2026-04-15 15:02 30.22683 120.14628 4202 ft 223 kts 148°
2026-04-15 15:02 30.21342 120.15526 3928 ft 219 kts 148°
2026-04-15 15:02 30.20468 120.16111 3748 ft 217 kts 148°
2026-04-15 15:03 30.19150 120.16993 3471 ft 215 kts 148°
2026-04-15 15:03 30.17471 120.18115 3153 ft 202 kts 147°
2026-04-15 15:03 30.16695 120.18672 3085 ft 193 kts 142°
2026-04-15 15:03 30.15817 120.19762 3038 ft 177 kts 118°
2026-04-15 15:04 30.15496 120.21565 3005 ft 177 kts 82°
2026-04-15 15:04 30.15903 120.22912 2999 ft 179 kts 64°
2026-04-15 15:04 30.16287 120.23754 2996 ft 179 kts 63°
2026-04-15 15:04 30.16845 120.25045 2972 ft 178 kts 65°
2026-04-15 15:05 30.17386 120.26295 2785 ft 170 kts 64°
2026-04-15 15:05 30.17920 120.27499 2558 ft 167 kts 64°
2026-04-15 15:05 30.18448 120.28693 2340 ft 168 kts 64°
2026-04-15 15:05 30.18978 120.29893 2111 ft 168 kts 63°
2026-04-15 15:06 30.20046 120.32306 1676 ft 168 kts 63°
2026-04-15 15:06 30.20563 120.33477 1445 ft 158 kts 63°
2026-04-15 15:06 30.21047 120.34569 1248 ft 147 kts 63°
2026-04-15 15:07 30.21497 120.35584 1045 ft 137 kts 63°
2026-04-15 15:07 30.21915 120.36531 873 ft 129 kts 64°
2026-04-15 15:07 30.22325 120.37461 696 ft 129 kts 63°
2026-04-15 15:07 30.22729 120.38381 550 ft 130 kts 63°
2026-04-15 15:08 30.23141 120.39307 376 ft 130 kts 63°
2026-04-15 15:08 30.23553 120.40229 200 ft 130 kts 62°
2026-04-15 15:08 30.23965 120.41158 44 ft 128 kts 63°
2026-04-15 15:08 30.24315 120.41948 40 ft 98 kts 62°
2026-04-15 15:09 30.24535 120.42456 35 ft 29 kts 71°
2026-04-15 15:09 30.24557 120.42663 36 ft 22 kts 89°
2026-04-15 15:09 30.24526 120.42777 38 ft 6 kts 160°
2026-04-15 15:09 30.24488 120.42763 38 ft 7 kts 216°
2026-04-15 15:10 30.24419 120.42758 38 ft 15 kts 151°
2026-04-15 15:10 30.24332 120.42802 38 ft 5 kts 190°
2026-04-15 15:10 30.24279 120.42739 38 ft 11 kts 242°
2026-04-15 15:10 30.24253 120.42685 38 ft 4 kts 232°
2026-04-15 15:11 30.24224 120.42675 38 ft 6 kts 182°
2026-04-15 15:11 30.24187 120.42682 37 ft 1 kts 167°
2026-04-15 15:11 30.24174 120.42687 38 ft 2 kts 162°
2026-04-15 15:11 30.24153 120.42694 38 ft 4 kts 163°
2026-04-15 15:12 30.24145 120.42697 38 ft 0 kts 163°